Weather History for Stevens Point, WI

Change the Weather History Date:

Thursday, May 15, 2014

  Actual Average Record
Temperature  
Mean Temperature 42 °F -  
Max Temperature 50 °F 67 °F 87 °F (1991)
Min Temperature 35 °F 44 °F 28 °F (2004)
Degree Days  
Heating Degree Days 22    
Moisture  
Dew Point 28 °F    
Average Humidity 55    
Maximum Humidity 79    
Minimum Humidity 39    
Precipitation  
Precipitation 0.00 in - - ()
Sea Level Pressure  
Sea Level Pressure 30.04 in    
Wind  
Wind Speed 10 mph (NNE)    
Max Wind Speed 16 mph    
Max Gust Speed 26 mph    
Visibility 10 miles    
Events      
Averages and records for this station are not official NWS values.
T = Trace of Precipitation, MM = Missing Value Source: NWS Daily Summary

Daily Weather History Graph

Daily Weather History Graph

Search for Another Location

Airport:

Trip Planner

Search our weather history database for the weather conditions in past years. The results will help you decide how hot, cold, wet, or windy it might be!

Date:

Astronomy

May. 15, 2014 Rise Set
Actual Time 5:30 AM CDT 8:19 PM CDT
Civil Twilight 4:56 AM CDT 8:53 PM CDT
Nautical Twilight 4:13 AM CDT 9:36 PM CDT
Astronomical Twilight 3:23 AM CDT 10:26 PM CDT
Moon 9:27 PM CDT (5/15) 6:17 AM CDT (5/15)
Length of Visible Light 15h 56m
Length of Day
14h 48m
Full, 99% of the Moon is Illuminated
May 15
Full
May 21
Last Quarter
May 28
New
Jun 5
First Quarter
Jun 12
Full

Hourly Weather History & Observations

Time (CDT) Temp. Windchill Dew Point Humidity Pressure Visibility Wind Dir Wind Speed Gust Speed Precip Events Conditions
12:15 AM 48.4 °F - 28.8 °F 47% 30.09 in 10.0 mi NNE 10.4 mph - N/A   Overcast
12:35 AM 48.0 °F - 33.1 °F 56% 30.09 in 10.0 mi East 13.8 mph 20.7 mph N/A   Overcast
12:55 AM 46.6 °F - 33.6 °F 61% 30.09 in 10.0 mi East 12.7 mph 18.4 mph N/A   Scattered Clouds
1:15 AM 45.9 °F 41.2 °F 32.9 °F 61% 30.09 in 10.0 mi ENE 9.2 mph 17.3 mph N/A   Mostly Cloudy
1:35 AM 45.3 °F 38.7 °F 32.5 °F 61% 30.09 in 10.0 mi ENE 15.0 mph 21.9 mph N/A   Overcast
1:55 AM 44.6 °F 39.7 °F 31.1 °F 59% 30.08 in 10.0 mi ENE 9.2 mph 17.3 mph N/A   Mostly Cloudy
2:15 AM 44.1 °F 39.0 °F 30.9 °F 60% 30.08 in 10.0 mi NE 9.2 mph - N/A   Mostly Cloudy
2:35 AM 43.9 °F 38.8 °F 30.9 °F 60% 30.07 in 10.0 mi NE 9.2 mph - N/A   Overcast
2:55 AM 43.7 °F 38.1 °F 29.7 °F 58% 30.07 in 10.0 mi NE 10.4 mph - N/A   Scattered Clouds
3:15 AM 43.2 °F 39.7 °F 30.0 °F 60% 30.07 in 10.0 mi NNE 5.8 mph - N/A   Mostly Cloudy
3:35 AM 42.8 °F 38.0 °F 30.0 °F 61% 30.07 in 10.0 mi NE 8.1 mph - N/A   Overcast
3:55 AM 43.0 °F 38.2 °F 28.8 °F 57% 30.07 in 10.0 mi NE 8.1 mph - N/A   Overcast
4:15 AM 42.8 °F 38.6 °F 29.1 °F 58% 30.06 in 10.0 mi NE 6.9 mph - N/A   Overcast
4:35 AM 42.8 °F 36.6 °F 28.0 °F 56% 30.06 in 10.0 mi NE 11.5 mph 16.1 mph N/A   Overcast
4:55 AM 41.7 °F 34.8 °F 29.3 °F 61% 30.06 in 10.0 mi NE 12.7 mph - N/A   Overcast
5:15 AM 40.5 °F 34.6 °F 30.2 °F 67% 30.05 in 10.0 mi NE 9.2 mph - N/A   Overcast
5:35 AM 40.1 °F 32.7 °F 30.6 °F 69% 30.05 in 10.0 mi ENE 12.7 mph 17.3 mph N/A   Overcast
5:55 AM 38.8 °F 32.1 °F 31.3 °F 74% 30.05 in 10.0 mi NE 10.4 mph - N/A   Overcast
6:15 AM 38.3 °F 31.9 °F 31.5 °F 76% 30.05 in 10.0 mi NE 9.2 mph - N/A   Overcast
6:35 AM 38.3 °F 33.9 °F 32.0 °F 78% 30.05 in 10.0 mi ENE 5.8 mph - N/A   Overcast
6:55 AM 37.9 °F 31.5 °F 31.8 °F 79% 30.06 in 10.0 mi ENE 9.2 mph - N/A   Overcast
7:15 AM 38.3 °F 32.5 °F 32.0 °F 78% 30.05 in 10.0 mi ENE 8.1 mph - N/A   Overcast
7:35 AM 37.8 °F 31.3 °F 31.6 °F 79% 30.05 in 10.0 mi NE 9.2 mph - N/A   Scattered Clouds
7:55 AM 38.7 °F 32.9 °F 31.6 °F 76% 30.05 in 10.0 mi NE 8.1 mph - N/A   Clear
8:15 AM 40.3 °F 36.3 °F 31.3 °F 70% 30.04 in 10.0 mi NNE 5.8 mph - N/A   Clear
8:35 AM 41.5 °F 37.1 °F 30.7 °F 65% 30.04 in 10.0 mi NNE 6.9 mph - N/A   Clear
8:55 AM 41.9 °F 37.5 °F 30.0 °F 63% 30.04 in 10.0 mi NNW 6.9 mph - N/A   Clear
9:15 AM 42.6 °F 40.9 °F 29.3 °F 59% 30.03 in 10.0 mi NW 3.5 mph - N/A   Scattered Clouds
9:35 AM 42.8 °F 38.0 °F 28.9 °F 58% 30.03 in 10.0 mi North 8.1 mph - N/A   Scattered Clouds
9:55 AM 43.5 °F 40.1 °F 29.7 °F 58% 30.03 in 10.0 mi NNW 5.8 mph - N/A   Scattered Clouds
10:15 AM 45.0 °F 41.8 °F 28.0 °F 52% 30.02 in 10.0 mi North 5.8 mph 9.2 mph N/A   Scattered Clouds
10:35 AM 46.4 °F 41.5 °F 26.8 °F 46% 30.02 in 10.0 mi North 10.4 mph - N/A   Scattered Clouds
10:55 AM 46.9 °F - 27.0 °F 46% 30.01 in 10.0 mi North 13.8 mph 19.6 mph N/A   Scattered Clouds
11:15 AM 46.6 °F - 26.1 °F 45% 30.01 in 10.0 mi North 11.5 mph 16.1 mph N/A   Scattered Clouds
11:35 AM 48.0 °F - 27.0 °F 44% 30.01 in 10.0 mi North 8.1 mph 11.5 mph N/A   Scattered Clouds
11:55 AM 48.7 °F - 26.4 °F 42% 30.00 in 10.0 mi NNW 11.5 mph 19.6 mph N/A   Mostly Cloudy
12:35 PM 48.4 °F - 26.6 °F 43% 30.00 in 10.0 mi NNW 6.9 mph 16.1 mph N/A   Overcast
12:55 PM 48.6 °F - 25.9 °F 41% 29.99 in 10.0 mi NW 11.5 mph 17.3 mph N/A   Overcast
1:15 PM 48.2 °F - 25.7 °F 42% 29.99 in 10.0 mi NNW 11.5 mph - N/A   Overcast
2:15 PM 50.4 °F - 27.0 °F 40% 29.99 in 10.0 mi North 15.0 mph 19.6 mph N/A   Overcast
2:55 PM 50.2 °F - 26.2 °F 39% 29.99 in 10.0 mi NNW 12.7 mph 18.4 mph N/A   Overcast
3:15 PM 49.6 °F - 26.6 °F 41% 29.99 in 10.0 mi North 13.8 mph 23.0 mph N/A   Overcast
3:35 PM 48.4 °F - 26.6 °F 43% 29.99 in 10.0 mi North 16.1 mph 26.5 mph N/A   Overcast
3:55 PM 48.6 °F - 26.6 °F 42% 29.99 in 10.0 mi North 12.7 mph 16.1 mph N/A   Overcast
4:15 PM 48.2 °F - 25.7 °F 42% 29.99 in 10.0 mi NNW 12.7 mph - N/A   Overcast
4:35 PM 48.2 °F - 25.2 °F 41% 29.99 in 10.0 mi North 12.7 mph 17.3 mph N/A   Overcast
4:55 PM 46.9 °F - 26.2 °F 44% 30.00 in 10.0 mi North 15.0 mph 21.9 mph N/A   Overcast
5:15 PM 46.6 °F - 25.9 °F 44% 30.00 in 10.0 mi North 11.5 mph 17.3 mph N/A   Overcast
5:35 PM 46.8 °F - 25.5 °F 43% 30.01 in 10.0 mi North 10.4 mph 17.3 mph N/A   Overcast
5:55 PM 46.2 °F 39.5 °F 25.2 °F 44% 30.01 in 10.0 mi North 16.1 mph 19.6 mph N/A   Overcast
6:15 PM 45.9 °F 40.4 °F 24.8 °F 44% 30.01 in 10.0 mi NNW 11.5 mph 18.4 mph N/A   Overcast
6:35 PM 45.9 °F 40.0 °F 24.6 °F 43% 30.02 in 10.0 mi North 12.7 mph - N/A   Overcast
6:55 PM 45.7 °F 39.8 °F 24.8 °F 44% 30.02 in 10.0 mi NNW 12.7 mph 19.6 mph N/A   Mostly Cloudy
7:15 PM 44.6 °F 38.8 °F 24.6 °F 45% 30.03 in 10.0 mi NNW 11.5 mph - N/A   Scattered Clouds
7:35 PM 43.7 °F 38.6 °F 24.8 °F 47% 30.04 in 10.0 mi North 9.2 mph 17.3 mph N/A   Clear
7:55 PM 43.0 °F 37.2 °F 24.6 °F 48% 30.05 in 10.0 mi NNW 10.4 mph - N/A   Clear
8:15 PM 41.4 °F 35.7 °F 24.3 °F 51% 30.05 in 10.0 mi North 9.2 mph 16.1 mph N/A   Clear
8:35 PM 40.5 °F 35.8 °F 24.1 °F 52% 30.06 in 10.0 mi NNW 6.9 mph - N/A   Clear
8:55 PM 39.2 °F 33.6 °F 24.1 °F 55% 30.06 in 10.0 mi North 8.1 mph - N/A   Clear
9:15 PM 38.1 °F 34.6 °F 24.3 °F 57% 30.07 in 10.0 mi North 4.6 mph - N/A   Clear
9:35 PM 37.4 °F 32.8 °F 23.9 °F 58% 30.07 in 10.0 mi North 5.8 mph - N/A   Clear
9:55 PM 36.5 °F 32.7 °F 24.4 °F 62% 30.07 in 10.0 mi NNW 4.6 mph - N/A   Clear
10:15 PM 36.5 °F 32.7 °F 24.4 °F 62% 30.08 in 10.0 mi NNW 4.6 mph - N/A   Clear
10:35 PM 35.8 °F 31.9 °F 24.1 °F 62% 30.07 in 10.0 mi NNW 4.6 mph - N/A   Clear
10:55 PM 35.8 °F 33.0 °F 23.5 °F 61% 30.07 in 10.0 mi NNW 3.5 mph - N/A   Clear
11:15 PM 35.6 °F 31.7 °F 23.9 °F 62% 30.07 in 10.0 mi NNW 4.6 mph - N/A   Mostly Cloudy
11:35 PM 36.5 °F 33.9 °F 24.3 °F 61% 30.07 in 10.0 mi North 3.5 mph - N/A   Overcast
11:55 PM 36.9 °F 34.3 °F 23.9 °F 59% 30.06 in 10.0 mi North 3.5 mph - N/A   Overcast